| time (UTC) | temp C | wind direction | speed KPH | gust KPH | rain 1hr cm | rain 24hr cm | rain mn cm | humidity % | barometer mb |
| 20260509021535 | 7 | 292 | 0.0 | 0.0 | 0.00 | 0.00 | 0.00 | 71 | 1012.2 |
| 20260509020033 | 8 | 292 | 0.0 | 0.0 | 0.00 | 0.00 | 0.00 | 69 | 1012.1 |
| 20260509014533 | 8 | 292 | 0.0 | 0.0 | 0.00 | 0.00 | 0.00 | 66 | 1011.9 |
| 20260509013044 | 9 | 292 | 0.0 | 0.0 | 0.00 | 0.00 | 0.00 | 65 | 1011.5 |
| 20260509011526 | 10 | 292 | 0.0 | 0.0 | 0.00 | 0.00 | 0.00 | 63 | 1011.2 |
| 20260509010025 | 10 | 292 | 0.0 | 0.0 | 0.00 | 0.00 | 0.00 | 62 | 1010.9 |
| 20260509004536 | 10 | 292 | 0.0 | 0.0 | 0.00 | 0.00 | 0.00 | 55 | 1010.8 |
| 20260509003022 | 11 | 292 | 0.0 | 0.0 | 0.00 | 0.00 | 0.00 | 53 | 1010.4 |
| 20260509001517 | 11 | 292 | 0.0 | 0.0 | 0.00 | 0.00 | 0.00 | 52 | 1010.1 |
| 20260509000015 | 11 | 292 | 0.0 | 0.0 | 0.00 | 0.00 | 0.00 | 51 | 1009.8 |
| 20260508234511 | 12 | 293 | 0.0 | 0.0 | 0.00 | 0.00 | 0.00 | 50 | 1009.4 |
| 20260508233012 | 12 | 293 | 0.0 | 0.0 | 0.00 | 0.00 | 0.00 | 50 | 1009.3 |
| 20260508231510 | 12 | 131 | 0.0 | 0.0 | 0.00 | 0.00 | 0.00 | 48 | 1009.1 |
| 20260508230032 | 12 | 312 | 0.0 | 0.0 | 0.00 | 0.00 | 0.00 | 46 | 1009.1 |
| 20260508224509 | 13 | 236 | 0.0 | 0.0 | 0.00 | 0.00 | 0.00 | 47 | 1008.9 |
| 20260508223016 | 13 | 238 | 0.0 | 0.0 | 0.00 | 0.00 | 0.00 | 46 | 1008.9 |
| 20260508221508 | 13 | 277 | 0.0 | 0.0 | 0.00 | 0.00 | 0.00 | 46 | 1008.7 |
| 20260508220014 | 13 | 255 | 0.0 | 0.0 | 0.00 | 0.00 | 0.00 | 48 | 1008.8 |
| 20260508214508 | 13 | 212 | 0.0 | 0.0 | 0.00 | 0.00 | 0.00 | 48 | 1008.6 |
| 20260508213007 | 14 | 310 | 0.0 | 0.0 | 0.00 | 0.00 | 0.00 | 47 | 1008.5 |
| 20260508211509 | 14 | 238 | 0.0 | 0.0 | 0.00 | 0.00 | 0.00 | 47 | 1008.5 |
| 20260508210007 | 14 | 300 | 0.0 | 0.0 | 0.00 | 0.00 | 0.00 | 47 | 1008.6 |
| 20260508204506 | 13 | 308 | 0.0 | 0.0 | 0.00 | 0.00 | 0.00 | 48 | 1008.6 |
| 20260508203006 | 13 | 90 | 0.0 | 0.0 | 0.00 | 0.00 | 0.00 | 47 | 1008.4 |
| 20260508201504 | 14 | 283 | 0.0 | 0.0 | 0.00 | 0.00 | 0.00 | 46 | 1008.4 |
| 20260508200004 | 14 | 300 | 0.0 | 0.0 | 0.00 | 0.00 | 0.00 | 43 | 1008.0 |
| 20260508194504 | 15 | 68 | 0.0 | 0.0 | 0.00 | 0.00 | 0.00 | 42 | 1007.9 |
| 20260508193003 | 15 | 225 | 0.0 | 0.0 | 0.00 | 0.00 | 0.00 | 39 | 1007.6 |
| 20260508191505 | 15 | 338 | 0.0 | 0.0 | 0.00 | 0.00 | 0.00 | 38 | 1007.6 |
| 20260508190002 | 16 | 322 | 0.0 | 0.0 | 0.00 | 0.00 | 0.00 | 37 | 1007.6 |
| 20260508184501 | 15 | 221 | 0.0 | 0.0 | 0.00 | 0.00 | 0.00 | 39 | 1007.5 |
| 20260508183003 | 15 | 264 | 0.0 | 0.0 | 0.00 | 0.00 | 0.00 | 40 | 1007.5 |
| 20260508181608 | 16 | 304 | 0.0 | 0.0 | 0.00 | 0.00 | 0.00 | 38 | 1007.5 |
| 20260508180100 | 16 | 290 | 0.0 | 0.0 | 0.00 | 0.00 | 0.00 | 38 | 1007.5 |
| 20260508174600 | 16 | 207 | 0.0 | 0.0 | 0.00 | 0.00 | 0.00 | 36 | 1007.5 |
| 20260508173058 | 16 | 279 | 0.0 | 0.0 | 0.00 | 0.00 | 0.00 | 36 | 1007.6 |
| 20260508171556 | 16 | 202 | 0.0 | 0.0 | 0.00 | 0.00 | 0.00 | 37 | 1007.7 |
| 20260508170058 | 16 | 232 | 0.0 | 0.0 | 0.00 | 0.00 | 0.00 | 37 | 1007.8 |
| 20260508164602 | 16 | 171 | 0.0 | 0.0 | 0.00 | 0.00 | 0.00 | 39 | 1007.8 |
| 20260508163051 | 15 | 260 | 0.0 | 0.0 | 0.00 | 0.00 | 0.00 | 40 | 1007.9 |
| 20260508161551 | 15 | 237 | 0.0 | 0.0 | 0.00 | 0.00 | 0.00 | 41 | 1007.9 |
| 20260508160048 | 15 | 233 | 0.0 | 0.0 | 0.00 | 0.00 | 0.00 | 40 | 1008.1 |
| 20260508154546 | 14 | 307 | 0.0 | 0.0 | 0.00 | 0.00 | 0.00 | 41 | 1008.3 |
| 20260508153043 | 14 | 222 | 0.0 | 0.0 | 0.00 | 0.00 | 0.00 | 41 | 1008.5 |
| 20260508151541 | 13 | 310 | 0.0 | 0.0 | 0.00 | 0.00 | 0.00 | 41 | 1008.6 |
| 20260508150042 | 13 | 299 | 0.0 | 0.0 | 0.00 | 0.00 | 0.00 | 40 | 1008.6 |
| 20260508144555 | 13 | 313 | 0.0 | 0.0 | 0.00 | 0.00 | 0.00 | 41 | 1008.6 |
| 20260508143036 | 13 | 232 | 0.0 | 0.0 | 0.00 | 0.00 | 0.00 | 42 | 1008.7 |
| 20260508141537 | 12 | 5 | 0.0 | 0.0 | 0.00 | 0.00 | 0.00 | 42 | 1008.8 |
| 20260508140039 | 12 | 203 | 0.0 | 0.0 | 0.00 | 0.00 | 0.00 | 42 | 1008.9 |
| 20260508134537 | 12 | 221 | 0.0 | 0.0 | 0.00 | 0.00 | 0.00 | 45 | 1009.0 |
| 20260508133042 | 12 | 268 | 0.0 | 0.0 | 0.00 | 0.00 | 0.00 | 46 | 1009.1 |
| 20260508131526 | 11 | 338 | 0.0 | 0.0 | 0.00 | 0.00 | 0.00 | 47 | 1009.1 |
| 20260508130022 | 11 | 30 | 0.0 | 0.0 | 0.00 | 0.00 | 0.00 | 49 | 1009.1 |
| 20260508124518 | 10 | 325 | 0.0 | 0.0 | 0.00 | 0.00 | 0.00 | 52 | 1009.2 |
| 20260508123014 | 9 | 265 | 0.0 | 0.0 | 0.00 | 0.00 | 0.00 | 56 | 1009.3 |
| 20260508121514 | 8 | 271 | 0.0 | 0.0 | 0.00 | 0.00 | 0.00 | 58 | 1009.3 |
| 20260508120013 | 8 | 315 | 0.0 | 0.0 | 0.00 | 0.00 | 0.00 | 60 | 1009.2 |
| 20260508114513 | 7 | 306 | 0.0 | 0.0 | 0.00 | 0.18 | 0.00 | 66 | 1009.2 |
| 20260508113011 | 5 | 5 | 0.0 | 0.0 | 0.00 | 0.18 | 0.00 | 80 | 1009.2 |
| 20260508111510 | 4 | 5 | 0.0 | 0.0 | 0.00 | 0.18 | 0.00 | 87 | 1009.1 |
| 20260508110020 | 3 | 5 | 0.0 | 0.0 | 0.00 | 0.18 | 0.00 | 88 | 1009.1 |
| 20260508104507 | 3 | 5 | 0.0 | 0.0 | 0.00 | 0.25 | 0.00 | 87 | 1008.9 |
| 20260508103007 | 3 | 5 | 0.0 | 0.0 | 0.00 | 0.25 | 0.00 | 87 | 1008.8 |
| 20260508101502 | 3 | 5 | 0.0 | 0.0 | 0.00 | 0.25 | 0.00 | 87 | 1008.7 |
| 20260508100002 | 2 | 5 | 0.0 | 0.0 | 0.00 | 0.25 | 0.00 | 86 | 1008.6 |
| 20260508094559 | 2 | 5 | 0.0 | 0.0 | 0.00 | 0.33 | 0.00 | 85 | 1008.4 |
| 20260508093058 | 2 | 5 | 0.0 | 0.0 | 0.00 | 0.33 | 0.00 | 85 | 1008.3 |
| 20260508091609 | 2 | 5 | 0.0 | 0.0 | 0.00 | 0.33 | 0.00 | 83 | 1008.2 |
| 20260508090109 | 3 | 5 | 0.0 | 0.0 | 0.00 | 0.33 | 0.00 | 83 | 1008.2 |
| 20260508084551 | 3 | 5 | 0.0 | 0.0 | 0.00 | 0.56 | 0.00 | 81 | 1008.1 |
| 20260508083050 | 3 | 5 | 0.0 | 0.0 | 0.00 | 0.56 | 0.00 | 80 | 1008.1 |
| 20260508081546 | 3 | 5 | 0.0 | 0.0 | 0.00 | 0.56 | 0.00 | 78 | 1007.8 |
| 20260508080043 | 4 | 5 | 0.0 | 0.0 | 0.00 | 0.56 | 0.00 | 76 | 1007.6 |
| 20260508074543 | 5 | 5 | 0.0 | 0.0 | 0.00 | 0.69 | 0.00 | 74 | 1007.3 |
| 20260508073039 | 5 | 5 | 0.0 | 0.0 | 0.00 | 0.69 | 0.00 | 72 | 1007.0 |
| 20260508071545 | 5 | 5 | 0.0 | 0.0 | 0.00 | 0.69 | 0.00 | 70 | 1006.9 |
| 20260508070030 | 6 | 5 | 0.0 | 0.0 | 0.00 | 0.69 | 0.00 | 69 | 1006.6 |
| 20260508064527 | 6 | 5 | 0.0 | 0.0 | 0.00 | 0.69 | 0.00 | 67 | 1006.4 |
| 20260508063023 | 7 | 5 | 0.0 | 0.0 | 0.00 | 0.69 | 0.00 | 67 | 1006.7 |
| 20260508061522 | 7 | 5 | 0.0 | 0.0 | 0.00 | 0.69 | 0.00 | 64 | 1006.6 |
| 20260508060019 | 7 | 5 | 0.0 | 0.0 | 0.00 | 0.69 | 0.00 | 61 | 1006.6 |
| 20260508054518 | 8 | 5 | 0.0 | 0.0 | 0.00 | 0.69 | 0.00 | 59 | 1006.6 |
| 20260508053027 | 8 | 5 | 0.0 | 0.0 | 0.00 | 0.69 | 0.00 | 57 | 1006.7 |
| 20260508051510 | 8 | 5 | 0.0 | 0.0 | 0.00 | 0.69 | 0.00 | 56 | 1006.6 |
| 20260508050008 | 9 | 5 | 0.0 | 0.0 | 0.00 | 0.69 | 0.00 | 55 | 1006.7 |
| 20260508044506 | 9 | 5 | 0.0 | 0.0 | 0.00 | 0.69 | 0.00 | 53 | 1006.9 |
| 20260508043006 | 9 | 5 | 0.0 | 0.0 | 0.00 | 0.69 | 0.00 | 52 | 1006.7 |
| 20260508041504 | 9 | 5 | 0.0 | 0.0 | 0.00 | 0.69 | 0.00 | 52 | 1006.8 |
| 20260508040002 | 9 | 5 | 0.0 | 0.0 | 0.00 | 0.69 | 0.69 | 52 | 1006.8 |
| 20260508034501 | 9 | 237 | 0.0 | 0.0 | 0.00 | 0.69 | 0.69 | 52 | 1006.8 |
| 20260508033002 | 9 | 284 | 0.0 | 0.0 | 0.00 | 0.69 | 0.69 | 54 | 1006.8 |
| 20260508031500 | 9 | 300 | 0.0 | 0.0 | 0.00 | 0.69 | 0.69 | 53 | 1006.9 |
| 20260508030104 | 9 | 301 | 0.0 | 0.0 | 0.00 | 0.69 | 0.69 | 54 | 1007.0 |
| 20260508024607 | 9 | 302 | 0.0 | 0.0 | 0.00 | 0.69 | 0.69 | 54 | 1007.1 |
| 20260508023100 | 10 | 302 | 0.0 | 0.0 | 0.00 | 0.69 | 0.69 | 53 | 1006.9 |